OBJECT E, 64532

Orbit data source: Space-Track

You're viewing an Uncataloged Satellite

Recently launched and/or uncataloged satellites may have evolving metadata. Metadata may include but not limited to: Owner, Maufacturer, Bus, Motor, and Mission.

OBJECT E, 64532 is a satellite in SSO that was launched on Mon, 23 Jun 2025 UTC via an FALCON 9 launch vehicle from the Air Force Western Test Range (AFWTR). Unknown objects in Earth's orbit typically refer to objects detected orbiting the Earth but have not yet been identified or cataloged. These objects could be anything from previously untracked satellites, spent rocket stages, debris from satellite collisions, or even natural meteoroids temporarily captured by Earth's gravity.

Loading next visibility...
Identifier
64532, 2025-135E
Orbit
SSO
Country
Flag of TBDTBD
Related business
None
Manufacturer
Unknown
Mission
Operational Amateur Technology
Bus & Motor
Unknown
Mass
Unknown
Launch date (UTC)
2025-06-23 (11 months ago)
Launch vehicle
FALCON 9
Launch site
Air Force Western Test Range (AFWTR)
Object type
Unknown
Shape & HBR
Box, 0.1 m
Radar Cross Section
0.015 m², Small (<0.1 m²)

Expand to show TLE details & history
Last TLE update: 17 hours ago

TLE from 17 hours ago
0 OBJECT E
1 64532U 25135E   26132.84812592  .00007007  00000-0  27985-3 0  9997
2 64532  97.4687 249.1101 0003110 293.7462  66.3450 15.25454732 49532
Epoch: 2026-05-12T20:21Z
TLE epoch observation values (Epoch: 2026-05-12T20:21:18.079Z)
Latitude
0.00003°
Longitude
73.16815°
Altitude
491.66 km
Speed
7.62 km/s
True Right ascension
16h 36m 26s
True Declination
0° 00' 00"
Sunlit
Object was in full shadow at epoch
Visualization orbit readout
Latitude
Unknown
Longitude
Unknown
Altitude
Unknown
Speed
Unknown
Apparent Right ascension
Unknown
Apparent Declination
Unknown
Sunlit
N/A
Visualization observer readout
Local Sidereal Time
22:06:27
Azimuth
Unknown
Elevation
Unknown
Doppler factor
Unknown
Orbital elements
Apogee altitude
488.516 km
Perigee altitude
484.247 km
Semi-major axis
6,864.519 km
Eccentricity
0.00031
Inclination
97.4687°
RAAN
249.1101°
Arg. of periapsis
293.7462°
True anomaly
66.37765°
Mean anomaly
66.345°
Eccentric anomaly
66.36132°
Mean motion
3.81617 °/min
Orbital period
94.34 mins
BSTAR
0.00027985
Loading maneuver chart data...
Computing Atmospheric mass density...
Loading historical data...
Loading historical data...
Loading historical data...
Loading historical data...
Loading historical data...
Loading historical data...
Loading historical data...

Documentation

Showing up to 5 results
|